Regional Weather Roundup
Issued by NWS

Home | Current Version | Previous Version | Graphics & Text | Print | Product List | Glossary Off
Versions: 1 2 3 4 5 6 7 8 9 10 11 12 13 14 15 16 17 18 19 20 21 22 23 24 25 26 27 28 29 30 31 32 33 34 35 36 37 38 39 40 41 42 43 44 45 46 47 48 49 50

000
ASUS43 KFSD 020902
RWRSD

WEATHER ROUNDUP FOR SOUTH DAKOTA
NATIONAL WEATHER SERVICE SIOUX FALLS SD
400 AM CDT SUN AUG 02 2015

NOTE: "FAIR" INDICATES FEW OR NO CLOUDS BELOW 12,000 FEET WITH NO
SIGNIFICANT WEATHER AND/OR OBSTRUCTIONS TO VISIBILITY.


SDZ001>005-009-010-012>017-021000-
NORTHWEST AND NORTH CENTRAL SOUTH DAKOTA

CITY           SKY/WX    TMP DP  RH WIND       PRES   REMARKS
BUFFALO          N/A     66  37  34 NE10      29.86R
FAITH            N/A     67  54  63 NW5       29.83S
MOBRIDGE       CLEAR     67  52  58 N10       29.75R
$$

SDZ012>016-024>037-041>051-057-063-072>074-021000-
SOUTHWEST AND SOUTH CENTRAL SOUTH DAKOTA

CITY           SKY/WX    TMP DP  RH WIND       PRES   REMARKS
RAPID CTY ARPT CLEAR     68  51  54 NW12      29.90F
PIERRE           N/A     71  60  68 W9        29.76F
CUSTER         CLEAR     67  53  61 W8        30.09F
ELLSWORTH AFB  CLEAR     64  51  62 NW12      29.90S
PHILIP         CLEAR     69  61  75 W9        29.82F
PINE RIDGE     CLEAR     62  56  80 S6        29.95S
WINNER         FAIR      72  58  61 SW12      29.81F
$$

SDZ004>011-016>023-039-040-021000-
NORTHEAST SOUTH DAKOTA

CITY           SKY/WX    TMP DP  RH WIND       PRES   REMARKS
ABERDEEN       CLEAR     61  57  87 SW7       29.69F
WATERTOWN      CLEAR     65  61  87 S6        29.74F
BROOKINGS      CLEAR     64  57  77 SW5       29.78R
SISSETON         N/A     73  62  68 W17       29.64F
$$

SDZ017-020-022-023-036>040-048>070-021000-
SOUTHEAST SOUTH DAKOTA

CITY           SKY/WX    TMP DP  RH WIND       PRES   REMARKS
SIOUX FALLS    CLEAR     70  60  70 SW10      29.77F
HURON          CLEAR     67  60  78 S6        29.72F
CHAMBERLAIN    CLEAR     66  61  82 W5        29.79S
MITCHELL       CLEAR     66  61  84 SW5       29.76F
YANKTON        CLEAR     70  63  78 S7        29.78F
$$

ABBREVIATIONS USED IN REMARKS
   TC - TEMPERATURE IN CELSIUS
  WCI - WIND CHILL INDEX
   HX - HEAT INDEX
  VSB - VISIBILITY




USA.gov is the U.S. government's official web portal to all federal, state and local government web resources and services.